Date,TemperatureHighF,TemperatureAvgF,TemperatureLowF,DewpointHighF,DewpointAvgF,DewpointLowF,HumidityHigh,HumidityAvg,HumidityLow,PressureMaxIn,PressureMinIn,WindSpeedMaxMPH,WindSpeedAvgMPH,GustSpeedMaxMPH,PrecipitationSumIn
2013-2-1,56,41,16,27,18,12,92,46,19,0.00,40.00,5,3,14,0.00
2013-2-2,58,40,25,26,19,12,72,46,18,0.00,40.00,4,2,11,0.00
2013-2-3,53,41,21,28,20,14,84,47,23,0.00,40.00,7,2,15,0.00
2013-2-4,59,45,29,29,22,14,85,45,19,0.00,40.00,6,4,18,0.00
2013-2-5,61,43,25,24,17,8,78,42,13,0.00,40.00,4,2,12,0.00
2013-2-6,63,46,19,25,20,13,83,40,22,0.00,40.00,8,4,19,0.00
2013-2-7,59,45,23,27,19,5,83,41,15,0.00,40.00,4,2,12,0.00
2013-2-8,58,45,26,22,19,15,70,38,23,0.00,40.00,11,5,26,0.00
2013-2-9,50,36,18,23,14,2,90,45,18,0.00,40.00,18,10,40,0.00
2013-2-10,45,34,17,21,13,5,79,45,22,0.00,40.00,7,5,19,0.00
2013-2-11,47,34,13,21,15,0,93,53,15,0.00,40.00,10,4,22,0.00
2013-2-12,43,32,19,20,12,3,67,46,20,0.00,40.00,12,6,24,0.00
2013-2-13,49,35,12,14,10,4,81,39,20,0.00,40.00,11,5,22,0.00
2013-2-14,53,39,21,19,14,10,68,40,19,0.00,40.00,11,5,25,0.00
2013-2-15,54,40,16,22,10,0,87,36,11,0.00,40.00,13,6,30,0.00
2013-2-16,60,43,15,19,7,-7,85,29,8,0.00,40.00,5,3,15,0.00
2013-2-17,60,44,14,7,3,-2,56,22,9,0.00,40.00,11,5,26,0.00
2013-2-18,54,43,25,18,-2,-19,51,19,5,0.00,40.00,11,6,26,0.00
2013-2-19,60,46,14,33,9,-15,63,27,9,0.00,40.00,12,6,37,0.00
2013-2-20,52,43,35,34,27,14,78,58,24,0.00,40.00,12,6,27,0.00
2013-2-21,48,37,28,27,21,15,92,56,28,0.00,40.00,10,6,24,0.00
2013-2-22,45,35,20,23,18,7,82,51,24,0.00,40.00,13,5,28,0.00
2013-2-23,48,35,14,20,9,5,80,40,18,0.00,40.00,7,4,20,0.00
2013-2-24,41,35,29,22,12,1,71,41,21,0.00,40.00,18,9,34,0.00
2013-2-25,50,37,24,24,7,-8,80,35,12,0.00,40.00,11,6,24,0.00
2013-2-26,49,34,12,20,1,-13,79,30,10,0.00,40.00,17,8,35,0.00
2013-2-27,48,34,12,15,3,-9,69,29,13,0.00,40.00,6,3,12,0.00
2013-2-28,55,37,20,7,0,-6,39,22,9,0.00,40.00,10,4,26,0.00